Volver al catálogo

SL-14 DEB

LostPO
NORAD 43321·DEBRIS·🇷🇺 Russia

Lanzado Dec 2, 1986 desde Plesetsk Cosmodrome

Loading…

Próximos Pases (próximas 24 horas)

TLE

ObsoletoSource: Space-Track

Época: Aug 1, 2026, 01:54 UTC

1 43321U 86094D   26213.07916962  .00000024  00000-0  10425-3 0  9995
2 43321  82.6096 338.9674 0001122 337.9842 146.4423 12.42170102996589

Sigue SL-14 DEB en tiempo real con AllMySat

Download on the App Store